星链-36245(STARLINK-36245)

导读

STARLINK-36245(NORAD编号68328)是美国SpaceX公司星链(Starlink)低轨互联网星座的组成卫星,属于第二代星链卫星星座。它部署于近地轨道,配备相控阵天线与氪离子推进系统,单星约重260千克,可支持最高500Mbps通信速率,为全球提供高速低时延互联网接入服务。星链星座最终计划部署4.2万颗卫星,截至2025年已部署近7500颗,占据全球现役卫星总数六成以上,不过其密集低轨部署也引发天文观测干扰和空间碎片的学界担忧。

Basic Information
目录编号:
68328
目录名称:
STARLINK-36245
国际标识:
2026-059H
轨道中心:
EARTH
卫星名称:
星链-36245
卫星全名:
星链-36245(STARLINK-36245)
卫星状态:
在轨 (已飞行175 天)
发射日期:
2026-03-22 UTC
国别 :
美国 (US)
星等 :
--
This satellite is enrolled in the Space Conjunction Data Service (SCDS) and the current flight risk assessment level is: No High Risk
Orbit Information
数据来源 国际轨道数据
星历时间: 2026-09-13T10:37:06+0800
9小时前
查看轨道信息
半长轴: 6840.812km
偏心率: 0.0001301
轨道倾角: 53.159°
近地点辐角 81.639°
升交点赤经 196.071°
平近点角 278.476°
近地点: 461.785km
远地点: 463.565km
周期: 93.847分钟
每日圈数: 15.344096
Detailed Information
固有亮度:
5
最大亮度:
2.5
卫星平台:
Starlink V1.0
覆盖范围:
全球
运营商:
太空探索技术公司
运营商所在国:
美国
制造商(研发单位):
太空探索技术公司
制造商所在国:
美国
使用方式:
暂无
Satellite Introduction
Starlink 计划是 SpaceX 推出的全球卫星互联网项目,通过发射低轨道卫星,为全球尤其是偏远地区提供高速、低延迟的互联网服务。自 2019 年起,Starlink 已部署数千颗卫星,旨在缩小全球数字鸿沟,推动互联网普及。该项目还为军事、航空等行业提供通信支持,带来广泛经济效益。
2D Orbit Map
3D Orbit Map
Orbit Altitude Analysis Chart
Orbit Inclination Analysis Chart
Orbit Comprehensive Analysis Chart
View Comprehensive Chart
Conjunction Data List
Event ID Objects TCA Miss Dist (km) Collision Risk Probability Collision Risk Index (CRI) Action
CDM_260915-053305-237906-832822
2026-09-15T
05:33:40+0000
2.203 km
极远距离
1.9355E-6 低风险 0.41
CDM_260913-124805-265906-832821
2026-09-13T
12:48:00+0000
2.755 km
极远距离
1.340253E-6 低风险 0.38
Miss Distance Evolution Trend with All Objects
Collision Probability Evolution Trend with All Objects